Regional Weather Roundup
Issued by NWS

Home | Current Version | Previous Version | Graphics & Text | Print | Product List | Glossary On
Versions: 1 2 3 4 5 6 7 8 9 10 11 12 13 14 15 16 17 18 19 20 21 22 23 24 25 26 27 28 29 30 31 32 33 34 35 36 37 38 39 40 41 42 43 44 45 46 47 48 49 50
000
ASUS43 KDMX 270407
RWRIA

WEATHER ROUNDUP FOR IOWA
NATIONAL WEATHER SERVICE DES MOINES IA
1000 PM CST MON JAN 26 2015

NOTE: "FAIR" INDICATES FEW OR NO CLOUDS BELOW 12,000 FEET WITH NO
SIGNIFICANT WEATHER AND/OR OBSTRUCTIONS TO VISIBILITY.

* - THESE STATIONS ARE NOT NWS STATIONS...THUS NOT UNDER NWS
QUALITY CONTROL.  THEY ALSO DO NOT REPORT WEATHER SUCH
AS PRECIPITATION OR FOG.

IAZ001>003-012>014-020>022-031>034-043>046-270500-
   NORTHWEST IOWA

CITY           SKY/WX    TMP DP  RH WIND       PRES   REMARKS
CARROLL *      CLEAR     36  34  93 NW10      29.99S WCI  28
CHEROKEE *     CLEAR     34  32  93 CALM      30.01R
DENISON *      CLEAR     37  36  93 N9        29.99S WCI  31
LE MARS *      CLEAR     37  34  87 N6        30.03R WCI  33
ORANGE CITY *  CLEAR     36  32  87 NW5       30.01R WCI  32
SHELDON *      CLEAR     34  34 100 NW6       29.99R WCI  29
SIOUX CITY     PTCLDY    39  33  79 NW8       30.03R WCI  33
SPENCER        CLEAR     33  29  85 NW9       29.98R WCI  25
STORM LAKE *   CLEAR     34  32  93 NW10      30.00R WCI  26
$$

IAZ055>058-069>071-079>083-090>094-270500-
   SOUTHWEST IOWA

CITY           SKY/WX    TMP DP  RH WIND       PRES   REMARKS
ATLANTIC *     CLEAR     36  32  87 CALM      30.00S
AUDUBON *      CLEAR     37  32  81 NW3       30.01R
CLARINDA *     CLEAR     45  34  65 NW14      30.02R
COUNCIL BLFS * CLEAR     45  36  70 NW8       30.01R
CRESTON *      CLEAR     36  34  93 NW10      29.98S WCI  28
HARLAN  *      CLEAR     39  37  93 N8        30.04R WCI  34
LAMONI         CLEAR     40  33  76 NW13      29.96R WCI  32
RED OAK *      CLEAR     43  34  70 N9        30.01S
SHENANDOAH *   CLEAR     37  30  75 W5        30.02S WCI  34
$$

IAZ047>049-059>061-072>074-084-270500-
   CENTRAL IOWA

CITY           SKY/WX    TMP DP  RH WIND       PRES   REMARKS
AMES           CLOUDY    40  33  76 N13       29.95S WCI  32
ANKENY *       CLOUDY    41  36  81 NW12      29.96S
CHARITON *     CLEAR     41  36  81 NW13      29.95R
DES MOINES     PTCLDY    42  34  73 N9        29.97R
GRINNELL*      CLOUDY    37  34  87 NW12      29.93S WCI  30
KNOXVILLE *    CLOUDY    43  36  75 N9        29.94R
MARSHALLTOWN   CLOUDY    38  32  79 NW15      29.93R WCI  29
PELLA *        CLOUDY    41  36  81 N12G17    29.96R
PERRY *          N/A     36  34  93 NW8       29.98S WCI  29
$$

IAZ004>006-015-016-023>025-035-036-270500-
   NORTH CENTRAL IOWA

CITY           SKY/WX    TMP DP  RH WIND       PRES   REMARKS
ALGONA *       MOCLDY    36  34  93 N8        29.96S WCI  29
CLARION *      MIX PCPN  37  34  87 N17G24    29.95R WCI  28
ESTHERVILLE    CLEAR     33  31  92 NW8       29.97R WCI  26
FORT DODGE *   MOCLDY    36  30  80 CALM      29.97S
MASON CITY     CLOUDY    36  32  85 NW10      29.95R WCI  28
FOREST CITY *  CLOUDY    36  30  80 NW12      29.94R WCI  27
IOWA FALLS *   CLOUDY    37  32  81 NW13G20   29.95R WCI  29
$$

IAZ007>011-017>019-026>030-037>042-050>054-066-270500-
   NORTHEAST IOWA

CITY           SKY/WX    TMP DP  RH WIND       PRES   REMARKS
CEDAR RAPIDS   CLOUDY    37  35  92 NW14      29.89R WCI  28
CHARLES CITY * CLEAR     36  34  93 NW10      29.91S WCI  28
CLINTON *      CLOUDY    28  25  86 CALM      29.91S
DECORAH *      CLOUDY    37  34  87 NW9       29.87R WCI  31
DUBUQUE        CLOUDY    27  26  96 SW5       29.86S FOG     WCI  22
MONTICELLO *   CLOUDY    34  34 100 CALM      29.88R
OELWEIN *      PTCLDY    36  34  93 NW14      29.90R WCI  27
WATERLOO       CLOUDY    36  32  85 NW13      29.91R WCI  27
$$

IAZ064-065-067-068-078-270500-
   EAST CENTRAL IOWA

CITY           SKY/WX    TMP DP  RH WIND       PRES   REMARKS
DAVENPORT      CLOUDY    32  29  88 CALM      29.88S FOG
IOWA CITY      CLOUDY    39  35  86 NW9       29.91R WCI  33
MT. PLEASANT * CLOUDY    41  36  81 NW9       29.90S
MUSCATINE *    CLOUDY    37  34  87 CALM      29.89F
QUAD CITIES    CLOUDY    32  30  92 CALM      29.87S
$$

IAZ062-063-075>077-085>089-095>099-270500-
   SOUTHEAST IOWA

CITY           SKY/WX    TMP DP  RH WIND       PRES   REMARKS
BURLINGTON     CLOUDY    41  36  82 NW9       29.89R
FAIRFIELD *    CLOUDY    39  34  81 NW14      29.91F WCI  31
FORT MADISON * CLOUDY    43  37  81 NW9       29.91R
KEOKUK *       CLOUDY    43  37  81 NW10      29.90R
OSKALOOSA *      N/A     37  34  87 NW13      29.93S WCI  29
CENTERVILLE *    N/A     41  36  81 NW10      29.95R
OTTUMWA        CLEAR     36  33  89 NW12      29.93R WCI  28
WASHINGTON *   MOCLDY    39  39 100 NW10      29.90S WCI  32
$$

ABBREVIATIONS USED IN REMARKS
   TC - TEMPERATURES IN CELSIUS
  WCI - WIND CHILL INDEX
   HX - HEAT INDEX
  VSB - VISIBILITY
$$




USA.gov is the U.S. government's official web portal to all federal, state and local government web resources and services.